Theta_e
352 350 347 348 344 340 333 329 330 328 327 328 330 332 332 333 333 333 332 331 331 331 333 335 336 335 335 335 336 337 336 335 332 327 324 326 327 325 323 322 321 323 330 333 333 332 329 331 332 332 334 336 337 337 337 338 336 335 333 332 332 330 329 326 322 317 319 321 322 321 319 318 315 317 319 317 318 321 327 329 330 328 323 320 322
352 348 347 347 343 339 333 331 330 328 328 328 330 331 332 333 333 333 332 331 331 332 332 333 333 333 334 334 334 336 335 333 328 324 326 327 323 322 325 328 327 327 330 329 328 325 324 329 333 335 336 338 338 337 337 336 335 333 333 331 330 327 323 318 316 320 325 327 327 326 324 320 313 314 315 318 323 326 329 330 330 327 321 323 325
350 347 347 346 343 339 334 332 329 328 328 327 329 331 332 333 333 333 332 332 332 332 333 332 332 333 334 334 334 335 334 330 325 326 328 324 319 322 327 328 329 330 330 327 324 322 325 332 335 336 337 337 337 336 335 334 333 332 330 328 324 319 314 315 322 328 330 329 328 328 328 323 311 311 314 320 327 327 330 330 329 326 323 325 327
349 346 346 346 343 338 335 333 330 328 327 326 329 331 332 333 333 333 333 333 333 333 333 333 333 332 332 332 333 333 331 327 326 329 328 320 316 319 322 325 331 333 330 326 323 323 329 335 336 336 337 337 337 335 334 332 330 329 326 322 316 312 312 319 326 329 331 331 329 328 329 325 310 311 318 324 327 327 329 329 328 324 324 325 325
348 345 344 347 342 336 337 335 331 329 327 326 328 330 331 331 332 332 332 333 333 334 333 333 333 332 331 331 331 330 328 327 328 332 327 318 315 315 318 323 330 333 330 327 326 328 332 335 335 336 337 336 336 334 332 331 329 328 325 318 312 314 317 322 326 327 330 331 332 329 330 327 316 318 321 323 325 325 326 326 324 323 324 325 324
346 341 342 346 341 335 338 336 331 328 327 327 328 328 328 328 328 329 329 330 332 332 333 333 332 332 331 330 330 328 327 328 330 332 326 318 314 314 315 317 323 328 332 330 329 332 333 335 336 336 336 336 335 333 331 330 329 327 321 315 314 319 324 327 328 328 329 329 332 331 330 328 323 325 324 323 324 324 324 324 322 323 325 323 320
341 338 341 344 342 335 336 337 332 329 327 327 328 327 326 326 325 325 326 326 328 331 332 332 332 332 330 330 328 326 328 329 332 333 328 321 315 313 313 314 314 319 329 333 331 332 333 333 336 335 336 335 334 332 330 330 328 324 318 314 318 322 325 328 328 328 330 329 331 331 329 329 325 326 329 327 327 326 325 325 323 322 325 325 321
337 339 341 342 342 338 336 337 334 330 327 328 328 326 326 325 324 324 323 324 325 328 329 330 331 331 330 328 328 329 330 331 333 334 331 326 320 314 312 313 313 312 322 331 331 331 333 333 335 334 335 335 333 331 330 330 326 321 316 315 320 325 326 327 328 328 329 330 331 330 329 329 323 323 329 329 329 326 325 326 325 323 323 323 322
338 339 341 339 339 340 339 337 335 331 328 328 327 327 326 326 325 324 323 323 324 325 327 330 331 330 329 329 330 332 331 333 334 333 331 329 324 318 312 313 315 312 314 324 329 329 331 333 334 334 333 333 332 331 331 329 324 319 316 318 323 326 328 328 328 328 328 330 330 330 329 328 323 323 327 329 329 325 325 326 322 321 320 317 317
340 340 342 337 335 340 341 338 335 332 329 328 328 327 327 326 325 325 323 323 323 324 326 329 331 330 329 330 332 332 331 333 334 332 331 327 323 319 314 315 317 318 315 317 322 327 330 332 333 333 332 332 331 331 331 326 321 319 316 320 327 328 328 329 329 328 327 329 329 329 329 329 325 323 324 324 324 321 323 323 318 317 317 315 315
338 342 343 339 335 340 342 339 336 334 329 328 328 328 327 327 327 326 325 325 324 324 327 329 331 329 331 332 331 332 331 333 334 333 331 324 319 320 317 319 321 323 323 321 319 323 329 330 332 333 331 330 330 331 328 323 320 319 316 321 329 329 328 329 329 328 326 328 328 327 329 331 327 326 326 321 319 319 320 322 320 318 316 315 314
336 341 343 339 337 340 341 339 337 335 331 328 328 327 328 328 327 327 326 326 325 326 328 329 328 329 333 331 330 333 333 333 334 333 329 320 318 321 321 323 323 321 322 322 318 318 327 330 330 331 329 328 328 327 324 321 320 318 316 321 327 328 328 329 329 326 324 326 328 329 330 330 328 330 331 327 324 321 318 318 318 317 315 313 313
338 342 341 337 338 341 340 339 338 335 332 328 328 328 328 328 328 327 327 327 327 327 329 329 327 330 332 328 330 334 334 335 334 332 326 318 319 323 324 324 321 320 317 314 312 312 321 327 328 328 326 326 326 324 321 320 320 320 319 321 325 329 330 330 329 326 323 325 329 330 330 329 329 331 331 329 328 321 315 314 314 314 312 311 311
339 342 340 338 341 341 341 340 338 335 332 329 328 328 329 329 328 328 328 328 327 328 330 328 328 332 328 322 330 334 335 336 335 333 325 318 321 324 325 323 320 324 321 318 317 312 317 325 326 326 324 325 324 322 320 321 321 321 322 323 325 329 329 329 329 328 326 325 328 329 328 326 325 325 325 326 323 317 311 311 312 312 310 309 309
339 338 338 339 340 341 341 341 339 335 333 330 329 329 329 330 329 329 328 328 328 330 332 330 330 331 323 320 331 334 335 337 335 332 325 320 323 324 323 320 321 328 326 323 324 318 319 323 324 325 325 324 322 320 321 322 323 323 325 325 326 329 329 330 330 330 329 327 327 327 327 325 319 314 314 318 318 312 311 312 312 311 309 308 308
344 340 337 337 339 341 341 341 338 335 334 331 330 329 330 330 329 328 328 328 329 332 333 331 332 330 320 319 331 335 335 337 336 332 326 322 323 323 323 321 322 330 328 323 325 322 320 322 323 325 325 324 321 321 322 324 325 326 328 327 328 329 331 331 331 331 330 328 326 326 327 327 322 312 309 313 314 312 310 312 311 309 308 307 308
346 344 340 336 339 340 340 342 338 336 334 332 331 329 330 330 330 329 329 329 330 333 333 332 333 332 323 319 330 336 336 336 336 332 327 324 324 323 325 325 323 326 327 322 324 324 321 322 324 326 325 323 322 321 323 326 327 329 329 329 329 330 331 331 332 331 329 328 328 327 327 329 324 312 310 312 313 313 312 311 310 308 307 307 308
344 346 344 339 340 341 341 342 338 337 335 333 332 330 330 330 332 333 333 331 330 332 332 332 331 333 329 322 329 336 336 336 336 333 328 325 325 324 326 327 323 322 323 319 322 324 323 324 326 326 325 323 322 322 324 327 329 329 328 328 329 330 330 332 332 329 327 327 328 329 327 327 323 312 310 311 311 313 312 311 310 308 307 307 308
342 345 346 342 344 345 344 343 340 338 336 335 333 332 332 333 335 336 335 333 331 332 331 332 331 333 333 326 328 336 337 337 336 333 330 327 326 325 326 327 324 323 322 316 318 323 324 325 326 325 324 322 322 323 325 328 329 329 328 328 329 330 331 331 329 327 326 328 328 328 326 325 320 311 310 311 311 312 311 310 308 307 307 308 307
341 343 346 344 345 347 346 345 342 339 337 336 334 333 333 333 336 335 333 333 332 333 331 331 333 332 333 329 328 336 338 336 336 333 331 329 328 327 328 327 324 324 325 318 316 321 323 324 325 324 324 323 323 324 325 327 328 328 328 329 331 331 331 331 330 330 329 329 328 327 328 328 319 309 308 310 311 311 310 309 308 307 307 307 307
341 339 344 346 345 346 346 346 344 340 337 337 335 335 334 335 335 334 333 335 334 333 331 331 333 331 332 332 329 334 338 336 336 334 331 330 329 329 329 327 325 324 325 323 317 317 321 323 324 323 323 323 323 324 326 327 327 328 328 329 332 331 331 331 331 332 330 329 328 327 326 322 315 310 309 309 311 311 310 309 309 308 307 307 307
343 339 342 345 345 346 346 345 343 340 338 336 336 335 335 336 336 335 334 335 334 333 333 332 333 330 330 334 330 330 337 337 336 335 331 331 331 330 330 328 326 325 324 324 319 316 318 321 322 323 323 323 324 325 325 327 327 328 328 330 333 333 332 331 332 332 329 329 329 327 320 313 311 312 311 309 310 311 310 310 309 308 307 307 307
343 341 341 343 345 346 346 346 342 340 340 339 338 336 336 337 337 336 335 334 333 333 334 332 332 331 330 333 332 330 335 337 336 335 332 332 333 331 331 329 327 326 325 325 322 318 317 318 321 322 323 323 324 325 325 327 327 327 329 332 334 335 334 333 333 332 330 330 330 324 315 309 311 312 312 311 310 310 310 310 309 308 307 307 307
344 343 342 342 344 345 346 346 342 339 341 340 339 338 336 337 337 337 335 334 333 333 334 332 331 332 330 332 334 332 334 337 337 336 334 334 335 333 332 331 328 326 325 327 326 323 318 316 319 321 321 323 324 324 326 329 330 329 330 334 335 335 336 334 333 332 331 331 329 322 316 313 312 311 311 311 311 311 309 309 309 309 308 308 307
343 344 346 343 342 345 345 344 341 338 340 340 340 339 337 337 338 337 335 333 333 333 333 332 331 331 331 332 334 334 334 336 337 336 335 335 335 334 333 331 330 328 326 326 325 326 323 317 316 318 320 321 323 326 329 333 333 331 332 334 335 336 336 335 334 333 333 332 328 324 322 320 317 314 312 311 312 312 310 309 309 308 308 308 308
346 345 347 344 341 343 345 343 339 339 340 340 340 340 339 338 339 338 335 333 333 333 333 332 331 331 331 331 333 335 335 335 336 336 336 336 335 334 333 332 332 332 328 321 320 323 326 323 316 315 318 319 323 329 331 333 333 331 333 334 335 336 336 335 335 334 334 333 330 327 327 326 325 322 317 313 311 311 311 311 310 308 307 307 308
347 346 346 346 343 341 345 343 336 337 340 340 340 340 339 339 339 339 337 335 333 333 333 332 331 332 332 332 333 335 336 335 335 336 336 336 335 333 333 334 333 335 332 321 321 324 325 324 319 315 315 317 323 329 331 332 332 332 333 334 334 335 335 335 335 335 334 334 330 328 329 328 327 326 323 319 314 312 311 311 312 310 308 307 307
346 347 346 347 345 340 343 342 334 335 339 339 340 338 338 339 340 339 337 336 334 334 334 332 331 332 332 332 333 335 335 334 334 335 335 334 333 332 334 335 333 335 334 327 328 331 327 324 325 324 318 317 325 330 331 330 331 331 333 333 333 334 334 334 335 335 335 335 331 330 330 328 328 328 326 325 320 316 312 311 311 311 311 309 306
347 347 346 347 347 341 342 342 333 333 337 338 339 338 338 338 339 339 338 336 335 334 334 332 332 332 333 332 333 334 334 334 334 333 334 333 332 332 334 335 333 334 334 329 332 334 331 327 329 332 327 325 330 331 331 330 330 331 332 333 332 333 334 334 335 335 335 335 333 332 332 330 329 328 327 327 326 322 317 312 311 311 311 310 308
347 347 346 347 348 342 342 342 334 333 336 336 338 338 338 339 339 339 338 336 336 335 333 332 331 332 333 333 332 333 333 333 334 333 333 333 333 333 335 334 333 335 333 330 332 333 332 331 330 333 332 331 332 331 331 330 330 331 330 332 332 332 334 334 334 335 335 335 335 334 333 331 331 330 328 328 327 326 323 316 313 311 311 310 309
347 347 347 347 348 344 342 342 337 336 338 337 338 339 338 339 338 338 337 336 335 334 332 332 332 332 333 333 333 333 333 332 332 333 332 332 333 334 335 334 333 335 334 330 331 331 331 331 331 332 332 332 331 331 331 329 331 331 330 331 332 333 334 334 335 335 335 334 334 334 333 331 331 331 330 329 329 328 326 323 317 313 311 311 310
347 347 348 347 347 344 341 343 341 338 340 339 339 339 339 338 338 337 336 335 334 333 332 333 333 332 332 333 334 334 334 332 331 332 332 331 333 334 334 335 334 335 334 330 329 331 330 330 332 332 331 332 330 329 330 329 330 331 330 331 332 333 334 335 335 335 334 334 334 334 333 332 331 331 331 331 330 329 329 327 323 317 313 311 311
347 347 348 348 346 344 339 342 344 339 339 341 340 339 339 338 338 337 337 335 334 334 333 333 333 333 332 333 334 335 334 334 332 330 330 331 333 333 334 334 333 334 334 331 329 331 330 330 331 331 330 331 329 328 329 328 329 331 331 332 332 333 335 335 334 334 334 334 333 333 334 333 332 331 331 331 331 330 330 330 328 324 318 313 312
351 347 347 347 346 343 338 340 345 342 338 341 341 340 339 338 337 334 335 335 335 335 334 333 334 333 333 334 334 335 334 334 333 331 330 331 333 333 334 333 332 333 333 331 331 332 330 329 330 330 329 329 330 329 329 329 329 330 332 333 333 334 335 335 334 334 334 334 334 334 334 334 333 332 331 330 331 331 331 331 330 328 324 319 314
352 350 347 346 344 341 336 337 343 344 341 340 341 341 339 337 334 332 332 334 335 334 333 334 334 334 333 334 334 334 334 333 333 332 332 332 333 332 333 332 332 333 333 331 331 332 330 330 330 329 329 328 330 331 330 330 330 331 332 333 334 335 334 334 334 334 334 335 334 334 335 334 334 333 332 330 329 330 331 331 332 331 328 325 319
352 351 348 346 344 339 336 334 337 344 344 340 341 342 340 336 332 330 331 331 332 331 331 332 333 333 332 333 334 333 332 332 332 332 332 332 332 332 332 331 332 333 333 331 331 332 330 330 330 329 330 330 329 330 330 330 331 331 333 334 334 335 334 334 334 334 334 334 334 334 334 334 334 333 332 331 329 328 329 331 332 331 331 329 324
352 351 349 346 344 338 334 332 332 340 344 342 343 342 340 337 331 329 329 330 331 331 331 331 331 332 333 332 333 332 331 330 329 330 329 329 328 329 332 333 332 333 333 330 329 331 330 330 331 330 330 330 327 326 328 330 331 331 332 334 335 335 334 334 335 334 334 334 334 334 334 334 334 333 333 331 329 328 329 330 331 331 331 331 328
352 351 350 346 343 336 332 332 330 337 342 343 343 342 341 338 335 332 332 333 334 334 334 333 332 333 333 332 332 332 331 330 330 329 327 326 327 328 331 333 332 333 333 330 327 328 330 329 330 330 328 328 327 325 327 329 331 331 332 335 335 335 336 335 335 335 335 335 335 335 334 334 334 334 333 332 330 329 329 330 330 331 331 331 331
352 351 351 348 343 338 332 332 331 334 341 343 343 342 342 340 338 337 336 336 335 336 336 335 335 334 334 332 332 333 333 332 330 329 326 324 326 329 331 331 331 332 333 331 327 326 329 329 329 329 328 328 329 328 329 331 332 333 334 335 334 336 338 336 335 336 335 335 335 335 335 334 334 334 333 333 332 330 329 330 330 331 331 332 331
351 351 351 349 344 340 334 330 331 333 338 342 343 342 343 343 341 340 338 337 337 337 336 335 335 335 334 334 333 333 334 333 331 330 328 326 327 329 331 330 330 332 332 331 329 326 327 330 329 329 328 328 331 333 333 333 334 334 335 336 335 336 336 335 335 335 335 335 335 336 336 334 333 334 334 335 334 332 330 330 331 331 332 332 331
351 350 350 349 346 342 335 328 329 332 334 339 341 343 344 343 342 342 341 339 338 338 337 336 336 335 335 335 333 333 334 334 333 332 331 330 330 331 330 329 329 331 329 328 330 328 328 330 329 329 329 328 331 334 335 335 335 335 335 335 336 337 336 335 335 336 335 336 337 337 336 335 334 334 335 335 334 333 332 332 333 332 332 332 332
349 350 350 349 348 345 338 330 328 331 333 334 337 341 343 343 343 343 342 341 339 338 337 338 337 337 335 335 334 333 333 335 334 333 333 332 332 331 330 329 328 329 329 329 330 328 327 329 330 330 329 328 329 332 335 335 335 335 335 335 336 337 336 335 335 336 337 337 338 338 337 336 335 335 335 336 335 335 335 335 335 334 333 333 333
348 349 349 348 347 346 342 336 330 330 332 333 332 336 341 343 343 343 342 341 340 339 339 339 338 337 337 335 334 334 333 334 335 334 333 332 331 331 330 329 329 330 331 331 330 328 328 330 332 331 329 329 330 332 335 335 335 335 335 336 336 336 335 334 334 336 336 336 337 338 337 337 337 336 335 336 336 335 336 336 336 336 334 334 333
347 347 348 348 346 346 344 340 335 332 332 331 329 332 338 342 343 343 342 341 341 340 340 339 339 338 337 336 334 334 333 334 335 335 333 332 332 332 331 330 330 331 332 331 330 330 329 329 332 331 328 330 330 332 334 335 335 336 336 336 336 336 336 336 335 335 334 334 336 336 336 337 337 336 336 336 336 336 335 335 335 336 335 334 333
344 345 347 348 346 345 345 344 341 338 334 331 329 331 336 341 343 343 343 343 342 342 341 340 339 338 337 337 335 334 334 335 335 335 334 333 333 333 332 332 332 332 331 330 330 330 329 329 332 332 329 329 331 332 333 334 336 336 336 336 336 336 336 335 335 336 335 334 336 336 335 336 337 336 337 336 335 336 335 334 334 335 334 333 332
342 344 346 347 346 345 345 345 344 342 338 334 331 330 332 337 341 342 343 343 342 342 342 340 339 338 337 336 336 335 335 335 335 335 335 334 334 334 333 333 333 331 329 329 329 329 329 330 331 330 330 330 331 333 332 333 336 337 335 336 336 335 335 333 334 337 337 335 335 336 334 335 337 337 335 334 334 336 336 335 334 332 333 332 332
342 343 345 346 346 346 345 345 345 343 341 338 334 331 330 333 339 342 342 342 342 341 341 340 339 337 336 336 337 336 336 335 335 335 334 334 334 334 334 333 333 332 330 330 330 330 330 330 329 328 329 329 330 331 333 334 336 337 335 336 336 335 334 333 333 335 335 335 335 335 334 334 335 335 334 333 335 335 334 335 336 332 331 333 332
341 341 344 345 345 345 346 346 345 343 343 340 336 332 331 332 336 340 342 342 341 341 341 340 339 336 336 337 337 337 337 337 336 335 335 334 333 334 334 333 333 332 332 331 331 331 331 331 328 327 328 328 327 328 333 335 336 337 334 334 334 334 334 333 334 334 333 334 334 334 334 333 333 333 335 335 333 332 331 334 336 333 332 333 332
341 341 342 344 345 345 345 346 346 344 343 342 339 334 331 332 335 338 341 342 342 342 341 340 338 337 337 338 338 338 338 337 336 335 335 334 333 333 334 333 333 332 332 331 331 331 332 331 329 328 327 328 327 327 329 334 337 336 334 332 331 331 332 331 332 333 333 333 333 334 334 334 332 332 334 334 333 333 333 334 336 334 331 332 332
342 341 342 344 345 344 344 345 346 345 343 342 341 337 332 333 336 338 340 341 342 342 342 342 340 339 339 339 338 337 337 337 336 334 335 334 334 333 333 333 332 332 332 332 331 331 331 330 330 329 328 327 328 328 326 330 335 336 334 331 329 328 329 329 330 332 332 332 333 335 335 335 333 332 332 333 332 333 334 334 334 333 331 331 331
341 341 342 343 344 344 343 344 345 345 344 342 342 341 337 334 336 339 339 341 342 342 342 342 342 341 340 339 338 337 337 337 336 335 335 335 334 333 333 334 334 333 333 332 330 330 330 330 329 329 330 329 328 328 327 329 332 333 331 329 327 328 328 328 329 331 333 333 334 335 335 335 334 332 332 332 331 331 334 334 332 331 331 330 330
Wind_Speed
6 8 6 6 9 11 10 9 8 7 7 7 7 7 7 7 7 7 7 7 8 9 9 8 7 6 5 3 3 2 1 1 2 4 4 4 3 3 2 4 5 7 9 9 7 6 6 5 5 4 4 4 5 7 8 9 9 10 9 9 6 5 4 4 5 6 7 7 7 6 5 5 4 2 4 7 8 9 10 10 8 4 3 3 8
7 8 6 8 9 11 10 9 8 7 7 7 7 7 7 7 7 7 7 7 8 8 9 8 7 6 5 4 3 2 1 1 3 4 3 3 3 4 5 6 7 8 9 8 7 7 7 6 5 5 5 7 9 10 11 12 12 11 9 7 5 5 6 7 9 11 12 11 12 13 13 11 5 2 5 9 11 12 11 9 7 3 5 8 9
8 6 6 8 8 10 10 9 8 7 7 8 8 8 7 7 7 7 7 7 7 7 8 8 7 7 6 5 3 2 1 1 2 3 3 3 4 5 7 8 8 8 9 8 8 8 7 6 6 6 8 10 11 13 14 13 12 9 7 6 6 7 9 12 15 17 17 16 16 16 17 15 6 5 8 11 11 11 11 8 5 2 5 8 7
6 5 6 7 9 10 10 9 8 8 8 8 8 8 7 7 6 6 6 6 6 7 7 7 7 7 6 5 4 2 1 1 2 3 3 4 5 6 8 10 11 9 9 9 9 8 7 7 7 8 10 12 13 14 14 12 10 8 8 9 10 11 14 17 19 20 18 17 17 17 17 15 9 9 11 12 10 10 9 7 4 2 5 6 4
7 5 6 9 9 11 11 10 10 9 9 9 8 8 7 6 6 5 5 5 5 6 7 7 7 7 6 5 4 2 1 2 3 3 3 4 5 7 7 10 11 9 10 9 9 9 8 8 8 10 11 13 14 13 12 11 10 9 10 11 13 16 18 18 19 20 19 16 15 14 14 14 11 13 11 11 10 9 7 5 3 4 5 4 2
9 4 6 10 10 13 12 10 11 10 10 10 9 8 7 6 6 5 5 5 5 6 6 7 7 6 6 5 4 2 1 2 3 2 2 4 5 6 6 7 9 9 11 10 9 9 8 8 9 10 11 13 13 12 11 10 10 10 11 14 17 19 20 20 19 18 18 17 14 13 8 11 10 11 12 10 9 7 5 3 3 5 5 3 2
8 4 6 9 10 13 13 11 11 11 11 10 10 9 8 7 6 6 5 5 5 5 6 5 5 5 5 5 3 2 3 3 3 2 1 3 4 4 4 5 7 9 11 9 9 10 9 8 8 10 11 13 12 11 11 10 10 11 13 15 17 19 20 19 18 16 15 15 14 13 3 10 8 6 11 9 8 6 4 3 4 5 5 3 2
7 6 7 8 9 12 13 13 12 11 11 11 11 10 9 8 7 7 6 5 5 5 5 5 5 5 5 4 3 4 4 4 3 2 1 2 2 3 3 4 7 8 10 9 11 11 9 9 8 9 11 12 12 11 11 10 10 11 14 15 17 19 19 18 17 16 14 13 12 10 1 7 4 4 9 8 6 5 3 4 3 4 5 4 3
8 7 8 8 8 10 13 13 13 12 12 12 11 11 10 9 8 7 6 6 5 5 5 5 5 5 4 4 5 6 6 5 3 2 1 1 2 3 3 5 7 8 8 9 12 13 10 10 9 9 11 12 11 12 10 10 10 11 15 16 17 18 18 17 16 15 13 13 10 7 1 4 2 4 6 6 4 3 2 4 3 2 3 2 2
9 7 9 9 7 11 14 14 14 13 12 12 12 11 10 9 8 7 7 6 5 5 5 5 5 5 5 6 7 7 7 5 4 2 1 1 2 4 5 6 8 8 8 9 12 13 12 10 10 9 11 11 12 12 11 11 10 11 13 15 17 18 17 15 14 14 12 12 7 7 5 4 3 3 2 1 1 1 2 3 2 2 1 1 1
9 8 10 11 7 11 13 14 14 13 13 13 12 11 10 9 8 7 6 5 5 5 5 5 5 5 6 7 8 8 7 6 5 3 2 2 3 5 6 7 8 8 8 9 10 13 13 11 10 10 11 12 12 12 12 11 10 11 11 13 15 15 15 15 14 13 12 10 3 5 10 11 8 1 4 2 1 2 1 2 2 4 3 2 2
10 11 15 14 7 11 13 14 15 14 14 13 13 12 11 9 8 7 6 5 4 5 5 5 5 6 7 8 9 9 7 6 6 4 3 4 5 6 7 7 7 8 7 8 10 14 15 13 11 10 11 12 12 12 12 12 10 10 10 12 13 13 15 15 14 12 10 6 2 4 12 12 9 6 7 4 4 5 4 4 4 4 3 3 3
12 15 17 14 9 12 12 14 16 15 14 14 14 13 12 10 9 7 6 5 4 5 6 6 6 7 8 8 10 9 8 8 7 5 4 5 6 7 7 8 8 8 7 8 10 14 15 14 13 12 12 13 12 13 13 12 11 10 10 10 11 13 13 14 14 13 9 5 5 7 10 9 8 9 9 7 8 7 6 6 4 3 1 2 3
13 16 15 12 11 12 11 14 16 15 15 15 15 14 13 10 9 7 6 5 4 5 6 6 7 7 7 7 9 9 8 9 8 6 5 6 8 8 8 8 8 8 8 9 10 13 15 15 14 13 14 14 13 14 14 12 11 10 9 9 11 13 14 14 15 15 10 4 5 8 8 7 7 9 10 9 9 7 6 4 4 3 1 3 3
10 12 11 12 12 12 12 13 16 16 15 15 15 14 12 10 9 7 6 5 4 5 6 6 7 6 6 7 9 9 10 10 9 7 6 7 9 8 7 8 9 8 8 10 11 14 16 15 14 15 15 15 14 14 14 13 11 9 8 8 10 13 13 13 14 15 9 2 5 8 6 4 7 10 10 9 8 6 5 3 5 3 2 3 3
11 11 9 10 11 11 13 14 16 16 15 15 14 14 12 11 10 8 7 6 5 6 6 7 7 6 5 7 9 9 11 11 10 8 7 8 9 8 7 8 9 8 8 10 12 14 16 16 16 16 16 15 15 15 14 12 10 9 7 7 9 10 10 11 13 12 7 4 8 11 7 6 9 11 9 7 7 6 4 3 5 3 3 3 3
14 12 10 10 11 12 13 14 17 16 15 14 14 14 13 12 11 10 8 7 7 7 7 7 7 6 5 6 9 11 12 12 11 9 8 9 9 8 8 8 8 8 8 9 11 14 16 17 16 16 15 14 14 14 13 12 10 8 8 8 9 11 11 11 11 9 7 6 9 11 9 8 9 11 9 5 5 6 3 3 5 3 3 3 3
15 15 13 11 11 11 12 14 16 16 14 14 15 16 15 14 12 11 9 8 8 9 9 8 8 7 5 6 9 11 12 12 12 11 9 9 10 9 9 9 8 8 8 9 12 14 16 16 16 15 15 15 15 14 13 11 10 8 8 8 9 10 11 10 10 9 6 7 9 10 8 9 9 11 9 5 5 6 4 4 4 4 3 2 4
15 16 14 11 11 11 11 13 16 15 14 16 17 17 16 14 12 11 10 10 10 10 10 10 10 8 6 6 9 12 12 13 13 12 10 9 10 9 9 9 9 9 8 9 12 14 15 16 15 15 15 15 15 14 13 11 9 8 7 8 8 10 13 13 12 9 6 10 11 11 9 9 10 10 9 6 5 6 4 5 5 4 4 3 5
16 17 15 12 12 12 11 13 16 15 15 18 17 17 17 15 14 13 12 12 11 11 11 12 11 9 7 7 10 12 13 14 14 13 11 9 10 10 10 10 10 9 8 9 11 14 15 15 15 15 15 15 15 14 13 11 9 7 6 7 8 12 14 12 11 9 6 9 10 11 10 10 11 9 8 7 5 5 4 5 5 4 4 4 6
16 18 19 15 13 14 12 14 17 14 15 18 18 18 18 17 16 15 14 14 13 13 13 12 12 11 9 9 12 13 14 15 15 13 11 10 10 10 10 10 9 9 9 9 10 13 14 15 15 15 16 15 15 14 12 10 8 6 5 5 8 12 12 10 8 8 8 9 8 9 10 10 9 7 6 6 5 5 5 5 5 5 4 5 7
15 15 19 18 16 15 14 16 16 13 15 18 19 20 19 18 18 16 16 15 14 14 14 13 13 12 11 12 13 13 14 15 15 14 12 11 11 11 10 10 9 9 10 9 10 12 14 14 14 15 15 15 15 13 11 9 7 5 4 3 7 10 11 9 7 5 11 8 5 7 9 7 7 6 5 4 4 4 6 5 5 6 6 6 7
16 15 17 20 19 15 16 18 16 14 17 19 20 20 20 20 19 17 17 16 15 15 15 15 14 13 12 13 14 14 14 15 15 14 14 12 12 11 10 9 9 9 10 10 10 11 13 14 14 14 14 14 14 13 12 9 5 4 3 2 5 7 8 8 6 3 9 8 7 7 6 5 6 6 4 3 4 3 5 5 6 7 7 7 8
18 16 16 18 20 16 16 19 17 15 19 21 20 20 20 20 19 18 17 17 17 17 17 16 15 14 13 14 15 15 15 15 15 16 15 14 13 12 11 9 8 9 9 11 11 11 12 13 14 14 14 15 14 13 12 7 4 4 3 2 4 4 5 7 7 3 9 8 7 4 2 3 4 4 3 3 3 3 4 4 5 7 8 8 9
18 17 18 18 20 19 17 19 17 15 19 23 21 20 20 19 20 19 17 18 18 18 18 17 16 15 15 15 16 16 16 16 17 16 16 16 14 12 12 11 9 8 9 11 12 12 12 13 14 15 15 15 14 11 8 7 7 7 4 1 2 1 3 5 7 6 11 9 6 2 1 1 1 1 2 3 3 3 3 4 5 7 8 8 8
18 18 20 19 19 22 22 20 17 16 20 23 21 20 20 18 19 19 17 18 19 19 18 17 16 15 16 16 17 18 16 16 18 17 16 16 15 13 13 13 11 9 9 11 11 12 12 11 12 15 15 15 14 9 5 9 10 10 6 2 2 4 4 6 7 9 12 9 5 3 2 1 0 1 1 1 3 3 3 3 4 6 8 7 7
20 20 20 21 20 22 25 23 17 17 20 21 21 21 20 19 19 19 18 18 18 19 18 17 17 17 17 17 18 19 17 17 18 18 17 17 15 14 15 15 13 12 12 10 8 8 10 11 11 13 15 16 15 7 3 10 12 9 6 5 6 6 5 7 8 10 11 7 5 3 2 2 1 0 1 2 0 2 4 4 4 5 6 6 7
21 21 20 21 21 21 25 24 17 17 20 21 21 21 20 18 17 17 17 17 17 18 18 17 18 18 18 18 19 19 19 18 18 18 18 18 16 15 16 17 16 16 13 8 8 9 9 10 11 10 12 13 12 6 6 12 12 9 8 9 7 6 7 7 8 10 10 8 6 4 2 2 2 2 1 1 1 1 3 4 5 5 5 5 6
22 22 21 22 22 20 24 24 18 18 20 21 22 21 20 18 16 16 17 17 17 17 18 18 18 19 19 18 18 19 20 18 18 18 18 19 17 16 17 18 18 16 13 9 12 13 13 10 10 12 12 10 10 9 10 12 14 12 11 10 7 7 9 7 8 12 11 9 7 5 4 2 2 2 1 0 1 2 1 3 4 5 5 4 5
21 21 21 22 22 20 24 24 20 19 20 21 22 21 20 19 18 17 18 19 18 19 19 19 20 20 19 19 19 20 20 19 19 20 19 19 18 18 18 20 18 15 14 12 11 12 17 14 11 14 14 12 12 13 13 13 15 14 10 10 9 9 10 8 10 12 11 11 10 8 6 4 3 2 2 2 2 2 2 1 2 4 5 5 5
21 21 22 22 22 21 24 24 20 20 20 20 21 21 21 21 20 19 20 20 20 21 22 22 22 21 20 20 20 21 21 20 20 21 19 18 19 20 21 21 20 17 16 15 12 11 16 16 14 16 16 14 13 13 14 13 13 13 8 8 11 11 9 8 10 11 10 11 10 8 7 6 4 4 3 3 3 3 2 2 2 2 4 5 6
21 22 22 22 23 22 23 24 21 20 21 19 19 19 20 22 21 20 20 21 22 23 24 25 23 21 20 20 21 21 21 22 21 20 19 18 19 20 21 22 20 18 17 16 14 12 14 16 15 16 16 15 13 13 14 13 12 12 9 10 13 11 9 10 11 11 10 10 10 10 9 8 6 5 4 4 4 3 3 3 3 3 2 4 6
21 22 22 21 23 22 22 25 24 20 20 20 18 18 19 19 19 19 20 21 21 23 25 25 24 22 21 21 20 20 21 21 19 19 19 17 18 21 22 22 20 19 17 14 13 12 13 15 15 16 15 15 14 13 14 13 13 12 10 11 13 11 10 12 12 11 11 9 10 11 10 10 8 7 6 5 5 4 3 3 3 3 3 2 5
19 21 23 22 23 23 20 25 26 21 19 20 18 18 18 17 16 17 18 19 21 23 24 24 24 23 22 20 19 19 20 20 18 18 19 17 18 21 22 21 20 20 17 15 14 12 13 15 16 16 15 15 14 14 15 13 13 13 12 11 10 10 12 11 11 12 12 10 11 11 9 10 10 9 8 6 6 5 4 4 4 4 3 2 3
19 20 22 23 24 23 20 23 27 24 20 20 19 17 16 16 16 16 17 17 19 21 22 22 24 24 22 20 19 20 19 19 19 19 19 19 19 20 23 22 21 21 18 17 15 11 13 16 15 16 16 17 16 13 14 14 13 14 15 14 12 13 14 13 12 12 12 12 12 11 10 10 10 10 10 9 7 7 6 5 4 5 5 4 3
20 20 21 22 24 23 21 21 25 27 23 20 19 18 18 16 16 15 16 17 18 20 20 22 24 23 21 20 20 21 21 20 20 20 20 20 20 20 21 22 22 22 20 18 16 12 15 16 15 17 16 16 18 14 13 16 17 16 16 15 13 13 15 13 11 10 12 13 12 11 10 10 11 10 10 10 8 8 7 6 5 5 6 6 5
22 21 22 22 24 23 21 20 21 26 25 20 19 19 19 17 15 14 16 18 21 21 21 22 23 23 22 21 21 21 22 22 21 21 21 21 21 20 20 22 23 23 21 20 19 16 15 15 14 19 18 14 16 15 15 19 19 18 16 15 13 11 13 12 10 10 11 12 12 10 11 11 12 11 11 10 8 8 9 7 6 6 6 7 7
23 21 22 23 23 23 21 19 19 22 24 22 21 20 18 17 16 15 16 19 21 22 22 23 24 24 22 21 21 20 21 23 22 21 21 21 21 21 21 22 23 23 23 21 21 19 17 16 17 18 19 16 15 16 18 20 19 18 16 15 14 12 12 12 11 11 11 10 11 11 11 12 12 12 12 10 9 10 10 9 8 7 5 6 8
22 21 22 22 23 23 21 19 20 20 22 22 22 21 18 17 16 16 17 18 20 21 22 23 24 24 22 21 21 20 20 21 22 22 22 22 22 23 24 23 23 24 25 22 21 21 20 20 21 20 21 21 18 17 17 18 18 17 16 16 16 14 13 14 13 12 11 9 11 11 11 12 11 11 11 11 11 11 12 10 8 8 6 5 7
20 21 22 20 20 22 22 21 20 20 21 22 24 23 20 18 17 18 19 19 19 21 22 22 23 23 22 21 21 21 20 20 21 22 22 23 23 23 24 24 24 24 26 24 22 22 22 22 22 22 24 24 22 17 15 17 18 17 16 16 16 15 15 14 13 12 11 10 12 11 11 11 10 11 11 11 11 11 12 11 8 7 6 4 5
19 20 21 19 17 18 21 22 21 21 20 21 24 25 24 22 21 21 20 20 20 21 22 21 22 23 23 21 21 21 20 20 21 21 21 24 24 22 24 25 25 25 26 25 23 23 23 22 22 23 25 26 24 19 15 17 18 17 17 17 16 15 14 13 13 12 11 11 12 11 11 11 10 10 11 11 10 10 12 11 8 7 7 5 4
19 21 21 19 18 16 18 21 22 21 20 20 21 24 25 24 24 23 22 21 21 21 21 21 22 23 23 22 20 20 20 21 21 21 22 23 21 21 23 26 26 26 27 27 26 24 23 22 23 24 24 25 25 22 18 18 19 18 17 17 16 15 14 13 14 12 12 12 11 12 13 11 10 11 10 10 10 10 12 11 7 7 8 7 6
18 21 21 19 19 17 16 19 22 22 20 20 20 21 23 24 24 23 22 22 22 21 20 19 20 21 22 21 21 20 20 21 20 21 23 23 21 19 21 24 25 27 28 28 28 26 24 23 23 23 23 24 24 23 21 20 20 19 17 17 15 14 14 14 15 14 14 14 12 12 13 12 12 12 11 11 12 11 12 11 8 8 9 9 7
17 21 21 19 19 18 16 17 20 22 22 21 20 19 19 22 22 21 20 19 19 19 19 19 20 21 21 22 22 21 20 21 21 22 24 24 22 20 21 23 25 27 28 28 28 27 25 24 24 23 23 24 24 23 23 22 21 19 17 16 13 11 11 11 12 13 13 12 12 13 12 12 13 13 12 12 12 11 9 9 9 8 10 10 10
17 21 21 20 19 18 17 17 18 20 22 21 21 20 20 21 22 21 19 19 19 19 20 22 23 22 21 22 22 22 21 21 22 22 23 24 23 22 23 25 26 27 27 26 27 27 26 26 26 24 23 24 23 23 23 22 20 18 16 14 11 10 10 8 8 10 11 11 11 11 11 11 11 12 11 10 9 7 8 10 10 9 10 11 12
15 19 21 21 20 18 17 17 18 19 21 22 22 23 23 23 25 25 24 24 24 24 24 24 24 23 22 21 22 23 23 23 23 23 23 24 23 23 23 25 26 26 26 25 26 26 27 27 27 24 22 23 22 22 22 22 20 19 17 16 13 10 10 9 8 9 11 11 11 10 10 9 9 11 11 10 8 6 8 10 11 10 11 12 12
14 15 19 22 21 19 17 18 19 19 21 23 23 24 24 24 26 28 27 27 27 26 24 24 24 22 21 21 21 23 23 23 23 23 24 24 24 23 24 25 26 26 25 25 25 25 26 27 27 24 21 21 22 21 21 21 21 19 18 20 17 13 11 10 9 9 9 9 9 9 10 10 10 11 11 10 8 6 7 8 10 8 10 10 9
14 14 17 22 22 20 20 20 21 19 20 23 25 26 26 25 26 27 27 26 26 25 23 23 23 21 21 21 22 23 23 24 24 24 24 24 24 24 23 24 26 26 25 24 24 24 24 26 26 24 22 21 22 23 22 21 22 20 19 21 20 16 13 11 10 10 8 6 6 6 9 11 12 12 10 9 8 7 8 8 7 6 7 7 8
16 17 17 20 22 22 22 22 22 21 20 22 26 27 27 27 26 26 27 26 25 23 21 20 20 20 21 21 21 23 24 26 26 25 24 24 24 25 23 23 25 27 26 25 25 24 24 26 26 25 23 21 23 24 24 22 21 20 19 19 19 17 15 13 13 13 11 8 6 6 7 10 12 12 11 9 8 7 7 9 8 5 5 7 9
17 18 17 19 22 21 22 23 24 24 23 23 26 28 28 28 26 27 28 27 24 23 22 20 19 21 22 22 22 23 24 26 26 26 24 24 25 25 24 23 24 26 27 26 26 25 25 26 26 25 24 22 23 23 24 24 22 20 19 19 19 18 17 16 15 14 13 11 9 8 7 8 11 13 11 10 9 7 6 7 7 5 5 8 10
17 18 17 19 22 22 22 24 25 26 27 26 26 27 28 28 28 27 28 28 25 25 25 24 22 23 24 24 24 23 23 23 25 26 24 24 25 25 25 24 23 25 26 26 25 25 26 25 25 26 25 24 24 23 24 26 23 21 21 21 20 19 18 16 15 15 14 12 11 9 8 7 11 12 10 9 9 7 6 6 7 7 7 8 10
Wind_Direction
196 224 200 196 193 190 189 177 167 151 143 144 145 144 143 144 146 148 151 150 156 161 165 169 171 172 167 178 198 205 185 4 30 45 45 49 42 51 66 94 112 122 122 125 131 132 133 120 115 123 126 130 125 123 123 122 121 121 120 111 102 89 74 59 52 52 62 58 52 39 18 354 342 32 83 92 96 99 103 99 85 42 10 68 97
202 229 191 188 187 189 188 175 166 152 147 147 148 147 147 147 149 152 155 154 157 163 167 171 171 172 175 192 210 206 158 35 42 58 51 40 37 67 85 97 106 112 120 125 127 126 122 115 114 115 113 121 122 120 120 120 118 116 111 102 88 68 57 56 66 68 69 66 62 54 39 20 5 77 102 107 103 108 110 111 117 78 70 84 91
210 224 185 186 183 190 185 177 167 158 152 150 153 149 153 151 151 155 156 158 159 166 168 172 171 172 182 199 214 208 145 68 56 69 58 47 61 86 97 104 102 103 109 107 112 117 118 117 112 111 113 120 121 120 120 117 112 108 98 82 68 58 65 74 76 69 62 61 58 46 31 23 37 101 115 119 115 120 121 119 121 61 82 96 98
203 206 183 189 184 189 185 183 175 166 160 153 158 154 156 154 154 159 158 161 162 167 168 171 173 175 184 200 213 216 140 84 88 87 66 66 83 100 106 105 103 106 108 105 116 125 126 120 110 111 118 122 122 121 117 111 106 97 86 70 63 65 78 85 80 71 63 56 53 44 22 21 61 99 116 120 123 131 132 129 129 101 102 105 121
177 189 175 189 187 185 187 187 182 172 164 161 161 157 156 155 157 162 164 165 166 167 168 171 172 177 185 198 211 221 126 114 116 101 77 87 97 104 107 106 112 121 121 119 127 131 128 123 115 117 123 125 123 120 113 108 103 92 80 66 65 74 85 87 81 76 73 68 63 55 20 8 51 83 100 112 126 134 132 137 153 138 112 107 147
180 191 171 191 190 183 190 189 185 177 169 166 162 159 157 157 159 165 170 167 170 168 169 171 173 180 187 200 207 214 157 148 133 113 88 97 101 102 99 105 118 127 129 134 137 133 129 127 120 122 131 130 125 119 113 108 102 90 79 72 72 82 89 85 83 80 80 81 78 80 43 344 17 72 92 101 117 119 117 128 139 118 96 90 119
192 187 183 195 194 186 192 194 189 182 174 169 165 163 160 160 160 164 171 169 172 170 171 172 173 182 189 201 195 186 170 157 148 133 103 94 104 111 97 103 121 126 129 140 146 137 131 133 126 126 135 133 127 118 114 111 102 91 83 81 81 88 93 89 86 83 83 84 86 101 126 303 336 81 104 101 109 108 106 103 108 108 101 115 127
192 180 190 191 194 190 194 199 194 189 179 172 170 167 165 163 161 163 171 170 174 174 174 174 175 185 189 192 178 175 165 156 162 145 124 101 114 128 111 117 128 129 133 144 149 143 136 137 134 131 133 133 127 119 119 114 105 95 89 88 90 95 98 97 92 88 87 82 91 111 188 292 327 104 118 116 116 104 87 81 93 115 116 143 178
192 189 192 194 193 195 199 202 197 193 183 175 173 171 170 165 164 165 168 169 175 177 174 180 180 185 184 178 174 166 160 161 163 145 147 128 131 147 134 131 133 134 141 147 149 148 146 142 141 138 133 134 127 122 125 119 110 103 99 96 98 100 101 103 97 96 94 86 105 142 165 303 322 111 131 137 129 119 90 76 87 113 110 115 112
199 195 197 214 200 199 204 202 201 196 189 180 175 175 173 169 169 166 165 169 172 180 177 182 185 183 182 177 175 166 164 167 164 163 188 194 148 158 146 137 138 139 143 151 156 154 152 151 148 145 137 131 126 127 130 123 115 110 107 106 106 105 104 102 98 94 90 99 137 186 179 247 248 109 96 149 144 168 136 117 103 3 352 314 66
194 174 193 232 211 199 206 203 204 198 195 185 179 179 177 175 172 169 166 169 169 180 180 182 188 182 181 178 176 169 171 170 168 178 189 194 163 160 150 140 143 146 148 154 167 162 156 159 155 149 141 132 131 135 134 127 120 116 113 115 114 108 105 100 99 92 85 110 177 225 190 213 228 253 342 342 349 297 239 177 235 317 311 238 214
182 167 195 235 226 203 207 206 207 200 199 188 184 182 182 182 174 175 168 172 173 179 182 185 191 184 184 183 181 175 176 176 176 182 183 187 170 164 152 139 143 149 157 160 174 173 161 160 159 151 145 139 138 139 135 130 125 123 123 125 121 113 112 104 99 91 87 124 167 191 196 216 237 276 303 305 321 306 282 257 255 286 283 210 184
176 185 206 233 224 210 210 208 209 203 200 191 188 185 186 187 176 178 173 177 179 180 184 186 191 190 192 188 184 180 180 183 185 188 183 179 168 167 153 141 146 144 147 149 165 175 166 161 158 152 148 147 145 143 138 134 130 129 132 132 127 123 119 110 103 95 96 143 171 189 220 246 257 275 291 293 304 300 276 253 234 241 243 147 149
179 200 218 225 213 212 213 209 210 204 199 193 190 188 189 189 181 178 175 180 182 184 184 189 194 197 199 191 186 183 185 189 195 194 177 171 167 168 159 148 153 149 142 141 150 164 165 163 158 153 151 151 149 146 141 137 135 134 137 132 130 131 123 117 115 111 110 141 202 228 250 268 278 288 289 289 295 285 261 231 177 185 122 85 102
191 211 224 220 211 210 212 207 209 205 197 196 193 191 192 191 188 182 179 180 183 185 185 193 201 208 203 195 191 188 193 195 199 197 173 170 169 169 167 157 159 158 149 148 149 154 161 163 158 153 152 151 149 147 143 140 138 138 139 136 137 139 132 125 118 119 129 158 237 253 249 259 310 315 293 279 281 258 236 192 147 149 87 83 96
197 218 226 216 207 208 212 205 204 204 197 196 195 194 196 197 195 189 183 180 182 182 187 199 206 218 207 200 200 196 202 200 200 198 180 174 172 169 165 157 161 164 153 152 154 155 159 160 157 155 153 152 150 148 146 143 143 144 140 134 140 145 140 128 114 112 129 179 238 256 255 270 305 314 298 269 257 235 217 150 132 123 107 101 114
190 204 222 214 203 207 210 204 200 200 196 195 199 201 202 202 200 192 183 178 182 183 190 202 211 222 211 207 207 205 208 205 202 199 191 179 173 172 165 158 164 173 165 160 161 159 159 158 157 156 156 154 153 151 150 148 147 147 140 131 132 132 127 122 113 101 115 168 229 246 255 280 301 305 294 264 234 215 197 127 123 118 121 111 122
185 190 216 218 204 208 202 200 197 193 193 200 207 209 206 205 199 188 180 182 190 191 194 201 210 219 216 214 210 212 212 209 207 200 198 185 176 179 174 167 167 178 178 172 168 164 163 161 160 159 160 159 157 157 155 152 151 148 140 137 136 133 126 122 117 104 127 191 234 243 259 286 298 298 286 254 207 195 180 133 132 135 134 114 120
186 184 209 219 201 204 197 190 188 187 196 210 213 209 206 204 196 184 186 195 199 198 201 203 206 211 212 217 213 216 216 213 212 204 201 193 184 185 185 179 173 177 178 177 174 169 167 166 165 164 164 163 163 164 162 159 156 151 139 133 133 134 131 130 125 113 159 204 230 247 268 286 291 291 279 256 209 191 174 143 143 148 146 114 112
191 182 196 217 203 200 199 183 180 190 207 212 210 207 205 201 195 193 198 203 204 207 211 210 204 204 206 215 215 217 220 215 214 210 205 200 194 191 192 189 183 181 177 179 180 177 174 172 171 169 169 169 170 171 168 167 167 159 141 129 127 134 137 141 131 117 173 213 237 256 269 278 283 284 275 263 216 190 173 145 144 150 146 123 115
197 186 185 206 210 197 193 185 183 198 215 210 207 207 203 198 196 199 203 203 207 213 217 215 208 205 203 209 214 216 221 217 212 213 208 204 203 200 200 199 194 192 185 182 186 186 182 179 177 175 175 176 177 175 174 176 178 171 151 136 135 136 137 139 119 127 203 241 251 257 270 268 272 277 276 273 227 192 177 159 156 154 147 140 133
200 192 183 195 209 197 185 192 192 199 213 209 208 207 201 197 197 198 201 203 211 217 218 217 214 213 207 209 215 216 221 219 212 212 210 207 207 206 208 208 207 206 200 192 193 195 191 187 184 183 181 183 184 180 180 180 185 188 174 158 151 145 137 125 88 141 213 245 256 261 277 262 256 268 276 280 253 197 181 176 168 160 157 152 146
202 200 191 190 199 197 183 193 201 202 211 210 208 209 205 199 196 196 199 205 213 217 220 221 218 217 214 212 215 216 221 221 213 209 208 208 209 210 212 214 216 216 214 207 201 199 200 197 192 190 189 190 189 186 185 181 189 202 204 172 156 160 149 126 84 159 220 241 256 267 280 257 253 265 268 274 265 206 185 185 174 164 165 159 154
205 202 199 191 188 191 184 192 206 208 210 212 209 209 208 201 197 198 200 208 215 217 219 222 221 218 218 216 214 215 222 223 215 210 208 209 210 211 215 217 219 223 223 220 212 200 200 203 202 199 195 196 193 191 190 186 211 232 244 196 146 150 152 136 116 180 236 234 242 262 285 267 258 263 264 255 260 230 197 197 192 175 174 169 163
207 197 198 201 187 182 184 195 210 214 211 214 213 210 211 205 200 201 205 213 216 218 220 221 224 222 220 219 217 217 222 226 220 213 210 209 209 208 215 220 222 226 223 228 223 205 200 203 206 205 201 198 191 190 182 178 228 268 290 222 146 155 171 164 146 194 233 225 229 243 199 277 278 273 276 246 247 240 212 213 214 189 183 182 176
203 196 195 207 195 178 183 196 206 213 215 216 214 213 213 206 201 203 211 219 219 220 222 225 230 227 222 221 220 220 220 226 224 218 214 210 208 209 215 220 222 228 225 233 234 213 205 209 210 208 205 200 188 178 149 170 222 270 293 281 238 221 198 191 178 206 231 225 226 228 212 240 47 32 21 274 253 248 235 230 230 204 193 194 186
200 199 196 205 202 182 181 192 198 207 215 216 213 213 210 202 201 207 211 217 220 222 223 225 230 228 225 225 224 223 220 223 224 219 218 214 212 216 216 216 219 225 224 227 238 230 220 215 214 211 207 203 189 176 188 200 224 255 248 239 240 224 208 203 201 217 231 228 219 217 219 222 227 247 69 45 287 254 247 236 237 218 204 198 190
200 199 195 202 208 190 180 189 193 197 209 214 213 213 210 204 203 209 209 214 222 225 226 225 228 229 226 225 224 224 223 225 227 224 223 218 216 220 217 216 222 225 224 210 205 230 251 227 213 221 217 205 195 207 240 217 221 229 217 232 233 219 222 210 207 221 230 228 215 216 240 227 232 229 189 52 34 300 261 244 238 228 214 194 186
204 200 194 200 210 196 180 189 194 190 200 209 211 212 211 207 206 209 210 218 225 225 225 227 229 231 228 225 223 225 227 226 229 230 228 224 220 220 220 221 224 224 223 200 183 214 252 247 216 228 234 222 216 229 232 217 223 221 210 233 232 210 225 217 209 223 232 230 219 235 258 233 231 232 224 264 332 338 315 262 241 229 220 195 187
208 204 196 196 207 200 182 190 198 189 196 207 211 213 210 207 207 209 213 219 223 224 227 229 228 229 228 224 222 224 229 228 226 229 229 225 220 218 221 225 226 223 216 197 182 214 242 243 223 225 231 231 228 226 226 221 226 225 210 224 223 212 224 221 220 228 234 237 232 242 252 232 226 237 233 245 278 302 325 324 265 237 224 211 206
209 206 201 196 204 202 185 190 201 193 195 205 210 213 210 210 213 215 221 222 222 226 229 229 225 224 223 221 220 221 225 227 226 226 228 226 220 218 219 221 222 221 213 197 188 210 233 234 224 223 221 223 228 223 226 225 222 233 227 208 218 224 220 213 228 238 237 240 240 237 244 243 234 233 232 244 259 275 304 339 333 286 238 223 219
211 208 205 199 205 205 189 188 202 202 196 200 207 210 212 216 222 225 227 227 227 228 229 228 226 224 219 216 218 218 219 225 227 226 230 231 224 220 219 219 218 217 213 202 192 202 228 230 223 225 220 217 229 225 229 229 216 232 234 211 227 234 213 205 220 241 242 236 242 243 246 250 245 238 234 239 253 264 286 311 329 327 289 239 227
216 211 207 205 210 210 194 185 196 208 199 197 203 204 209 218 228 232 231 229 226 227 228 227 226 224 220 217 219 218 218 223 228 227 230 234 228 224 225 225 222 218 215 206 195 205 226 226 221 227 223 219 227 227 230 227 216 227 223 210 230 233 213 213 217 231 240 240 250 250 244 246 247 246 242 240 249 256 268 284 301 311 319 269 235
219 216 210 208 215 216 202 184 188 206 205 198 199 199 204 214 226 233 236 235 229 230 232 227 224 223 222 223 223 221 221 223 229 231 228 232 231 226 228 230 226 222 220 210 198 204 222 222 221 224 223 225 225 226 229 222 221 232 227 215 218 214 212 218 220 227 238 246 251 248 244 249 251 250 247 245 246 251 256 263 272 279 294 302 256
223 223 218 212 220 223 212 190 184 194 204 202 197 194 198 211 226 235 239 241 238 239 237 227 222 222 222 223 223 222 224 225 228 228 225 227 230 227 227 229 228 222 219 212 198 204 222 216 218 221 222 228 223 222 227 221 222 223 224 228 214 209 221 222 220 228 240 247 248 249 251 255 259 253 244 247 251 253 254 254 258 258 262 276 278
227 225 225 215 221 228 220 202 187 184 194 203 196 190 192 209 232 240 234 232 235 237 237 232 226 222 221 220 221 223 225 225 225 225 224 225 227 227 228 229 228 221 218 214 201 203 218 211 215 220 219 228 225 221 226 228 231 220 218 230 219 216 231 225 218 223 233 245 253 258 256 257 262 254 242 249 253 250 251 252 255 253 247 250 259
232 226 229 220 222 230 225 212 196 183 184 193 197 192 190 204 227 236 227 222 225 229 233 235 229 225 225 221 220 222 223 223 223 225 225 224 224 227 229 226 222 218 217 218 208 201 206 211 226 224 217 227 228 224 228 230 234 231 226 228 225 222 223 220 225 227 228 243 256 257 255 257 258 255 249 249 249 246 249 251 255 253 243 238 239
235 229 228 225 226 231 229 217 203 186 177 181 192 195 193 203 218 227 227 221 219 223 227 230 230 230 228 223 221 220 222 223 223 224 223 219 219 223 224 220 216 216 217 219 215 204 196 208 227 224 217 224 227 229 233 233 233 234 227 220 224 223 217 221 229 231 232 242 257 261 260 260 258 256 249 245 250 251 250 251 252 253 251 244 234
238 233 227 227 228 231 229 219 207 190 176 175 183 193 198 204 209 216 223 221 217 220 223 226 229 229 225 221 221 219 219 222 223 222 221 219 217 218 219 218 217 217 217 219 218 210 199 206 218 217 217 217 218 228 233 231 233 232 223 217 222 225 223 226 227 234 240 239 252 262 266 266 254 244 240 247 256 254 252 252 251 253 257 255 236
242 235 230 226 224 227 226 219 211 197 182 175 177 187 196 199 204 210 216 218 218 221 223 226 228 228 224 219 218 218 217 218 222 221 220 222 220 218 218 219 221 216 216 220 218 215 208 210 216 216 219 216 214 223 222 221 230 229 225 224 224 228 232 234 233 239 241 236 244 254 266 267 247 235 241 251 256 251 252 252 246 249 250 245 234
246 237 235 228 219 222 223 220 216 203 192 183 179 184 191 196 201 207 212 215 219 222 224 225 226 227 225 221 219 217 216 216 220 221 222 224 223 220 218 217 219 217 217 220 218 217 214 213 218 219 222 222 220 222 212 212 225 224 224 227 225 229 235 238 239 240 237 236 246 257 264 260 251 253 250 246 251 247 246 251 246 240 239 233 227
252 240 237 232 223 221 220 220 217 209 201 194 188 187 190 196 201 204 209 212 218 222 223 223 225 227 225 224 222 217 216 218 219 219 221 226 224 222 220 218 218 219 217 218 218 219 217 214 218 221 223 224 224 223 212 210 221 221 223 227 229 234 239 240 239 239 238 236 243 256 260 257 257 261 249 237 246 245 241 244 241 234 238 233 228
257 244 240 236 229 224 222 219 217 213 206 202 202 195 193 198 202 206 208 210 216 221 225 227 227 227 225 224 224 221 218 219 220 220 221 225 224 221 222 221 220 219 217 217 219 221 219 215 217 221 222 221 222 220 216 216 219 219 223 227 229 233 237 239 236 235 237 233 232 243 252 257 253 251 247 240 237 234 233 231 223 227 237 234 229
268 253 244 236 230 226 225 220 217 216 212 209 210 205 197 198 202 209 212 210 216 221 222 225 226 226 224 223 225 227 221 216 219 221 222 224 223 217 216 218 217 217 217 217 218 221 221 218 218 222 223 224 224 221 222 227 222 215 219 223 225 230 230 235 236 236 236 231 231 235 240 250 252 248 247 249 241 229 232 240 231 227 234 235 231
277 265 251 236 231 232 227 219 218 219 216 215 214 209 201 196 199 207 212 210 213 218 216 216 220 221 222 224 225 227 224 220 220 221 222 224 224 220 216 215 215 216 217 218 219 222 223 220 219 224 227 227 230 229 230 235 229 219 221 217 213 223 223 221 224 223 223 222 227 233 236 243 253 253 247 258 262 238 243 249 234 230 236 237 235
285 274 262 244 233 235 231 220 219 220 219 219 216 214 208 199 197 202 208 207 208 215 216 216 219 220 223 226 225 226 225 223 223 222 222 223 224 226 223 219 217 217 219 220 220 222 223 220 219 224 229 229 232 236 237 237 230 223 225 220 212 216 215 213 209 209 218 223 223 230 241 242 251 260 259 270 270 241 248 232 210 226 240 234 234
299 288 275 259 240 232 231 224 222 222 220 221 220 219 216 207 199 201 208 208 208 215 219 219 223 226 228 229 226 225 224 223 224 222 221 224 224 225 226 223 221 220 220 221 221 221 221 220 219 223 230 231 232 239 243 239 229 222 223 224 222 222 221 221 217 210 213 222 224 231 245 249 253 260 263 269 259 239 254 223 191 220 235 224 222
312 298 281 271 255 238 233 228 225 227 226 225 223 223 221 214 205 203 208 211 213 217 221 224 227 229 229 228 226 225 223 222 224 223 223 225 225 224 225 224 225 224 224 224 223 223 221 219 220 223 227 230 231 236 238 235 229 223 224 226 227 232 235 235 231 221 215 225 243 249 250 252 254 255 255 262 262 260 255 227 203 223 226 213 203
328 312 294 282 267 247 238 234 229 230 233 230 228 228 226 219 210 205 206 211 214 216 222 227 225 223 223 223 225 225 224 224 226 227 225 225 225 224 225 224 225 226 227 228 228 225 222 221 222 223 225 227 229 233 235 236 234 225 225 230 233 238 241 243 240 234 230 237 254 264 259 255 253 251 251 253 261 266 246 221 217 228 212 196 188
332 319 308 294 280 262 246 240 234 230 233 236 234 234 230 221 214 209 207 209 212 213 219 223 218 216 218 220 223 225 225 225 225 226 226 225 225 225 225 223 223 225 226 228 228 225 223 223 224 226 226 226 228 234 237 239 240 233 231 236 237 237 236 238 240 239 239 238 237 243 254 262 257 250 246 247 252 251 231 213 219 231 208 182 174
336 324 314 301 292 280 260 249 241 233 232 237 239 237 233 225 219 214 209 208 210 212 214 217 217 215 216 218 222 226 228 226 223 224 225 224 224 226 226 224 222 222 224 227 228 227 226 225 224 226 228 229 231 236 238 239 241 242 242 241 239 236 234 235 238 240 239 235 234 239 248 258 257 252 246 242 240 231 217 208 211 211 196 178 171